Location: Long Sault Conservation Area
(44.0496°N, 78.7419°W)
Time: 17:06:02
(UTC-04:00)

Daily predictions for brighter satellites

Satellite Brightness Start Highest point End
(mag) Time Altitude Azimuth Time Altitude Azimuth Time Altitude Azimuth
Cosmos 1464 Rocket 4.1 21:10:27 10° N 21:16:37 84° W 21:22:48 10° S
deb Chang Zheng 4 3.6 21:17:17 10° NNE 21:21:40 63° ESE 21:25:58 10° S
H-2A R/B 2.1 21:21:14 10° SSE 21:25:31 84° ENE 21:29:56 10° NNW
Okean 2 4.2 21:21:45 10° SSW 21:25:53 58° W 21:30:01 10° N
Cosmos 2369 Rocket 2.9 21:21:08 10° NNW 21:26:30 41° ENE 21:31:47 10° SE
Cosmos 1992 Rocket 4.4 21:24:46 10° NNW 21:29:52 51° ENE 21:34:56 10° SE
Cosmos 1666 3.4 21:26:53 10° NNW 21:30:43 57° W 21:34:32 10° S
Cosmos 2228 3.7 21:27:30 10° NNW 21:31:52 59° W 21:36:11 10° S
Cosmos 1626 Rocket 3.6 21:28:56 10° S 21:33:22 82° E 21:37:48 10° N
SJ-11-01 4.5 21:28:50 10° S 21:33:30 77° WSW 21:38:12 10° NNW
Cosmos 2034 Rocket 4.2 21:30:51 10° N 21:37:14 79° W 21:43:32 10° S
Lacrosse 4 Rocket 2.6 21:34:53 10° SSE 21:37:59 21° ESE 21:41:07 10° ENE
SL-16 R/B 3.9 21:32:52 10° SW 21:38:09 39° WNW 21:43:26 10° NNE
CZ-2C R/B 2.4 21:36:26 10° SSW 21:38:28 27° W 21:40:31 10° NW
SeaSat 1 2.7 21:38:44 10° SE 21:43:35 59° ENE 21:48:26 10° NNW
GRACE-1 4.0 21:44:53 10° N 21:47:45 80° W 21:50:36 10° S
GRACE-2 4.0 21:45:20 10° N 21:48:13 80° W 21:51:03 10° S
Nimbus 7 Rocket 4.4 21:43:40 10° NNE 21:49:39 79° ESE 21:55:33 10° SSW
Cosmos 1238 4.0 21:49:44 10° S 21:52:48 71° E 21:55:50 10° NNE
Cosmos 1953 Rocket 4.4 21:49:27 11° SSE 21:53:11 32° E 21:57:09 10° NNE
CZ-4B R/B 3.9 21:50:00 10° NNE 21:54:53 45° E 21:59:52 10° S
Cosmos 1190 Rocket 4.4 21:50:17 10° S 21:55:17 44° ESE 22:00:20 10° NNE
YAOGAN 6 3.2 21:54:35 14° SE 21:57:32 45° ENE 22:01:08 10° N
H-2A R/B 3.5 21:55:22 11° ESE 21:58:58 22° ENE 22:02:47 10° NNE
Atlas Centaur 2 3.8 21:54:39 10° SW 22:00:48 29° S 22:06:34 14° SE
Cosmos 1515 3.6 21:59:41 10° S 22:03:32 81° E 22:07:24 10° N
BREEZE-M DEB (TANK) 1.8 22:03:07 10° WSW 22:06:53 76° SSE 22:08:56 10° ENE
ATLAS 3B R/B 3.0 21:59:47 10° SSW 22:07:17 58° ESE 22:14:37 10° NE
Cosmos 1603 4.5 22:01:52 10° SW 22:07:22 55° WNW 22:12:52 10° NNE
ISS -3.1 22:04:23 10° WSW 22:07:38 71° NNW 22:10:54 10° NE
SPOT 1/Viking Rocket 3.7 22:03:18 14° SSE 22:07:40 62° ENE 22:12:46 10° N
CZ-4C R/B 4.5 22:05:22 16° ESE 22:08:02 31° ENE 22:11:36 10° N
Cosmos 1066 Rocket 4.3 22:03:22 10° S 22:08:59 64° E 22:14:46 10° NNE
Meteor 1-22 Rocket 4.4 22:07:05 10° N 22:12:39 63° ENE 22:17:17 16° SSE
CZ-4 R/B 4.2 22:12:15 10° NNE 22:17:07 50° E 22:21:17 14° S
MetOp-A 4.3 22:13:37 12° S 22:18:39 77° WSW 22:24:02 10° NNW
Cosmos 1939 Rocket 4.5 22:15:58 10° SSW 22:19:43 32° W 22:23:28 10° NNW
PSLV R/B 3.5 22:16:50 10° WSW 22:20:18 52° S 22:22:22 22° ESE
Cosmos 1953 3.7 22:19:02 10° NNE 22:22:19 24° ENE 22:23:57 19° ESE
Lacrosse 5 rocket 4.3 22:20:45 10° NW 22:23:14 16° NNW 22:25:48 10° NNE
Cosmos 1943 Rocket 2.7 22:18:28 10° NNW 22:23:49 46° ENE 22:27:31 19° SE
USA 234 3.3 22:19:11 16° ESE 22:24:37 83° NE 22:31:14 10° NW
BREEZE M DEB (TANK) 1.7 22:23:41 10° W 22:25:42 37° SSW 22:25:59 34° S
Cosmos 1758 Rocket 3.6 22:23:40 17° S 22:26:54 60° E 22:31:12 10° NNE
SPOT 5 3.6 22:23:09 10° S 22:27:18 43° W 22:31:27 10° NNW
Cosmos 1943 3.3 22:22:57 10° SSW 22:28:38 85° WNW 22:34:23 10° NNE
Terra 2.6 22:31:28 21° ESE 22:34:02 38° ENE 22:38:26 10° N
Envisat 4.3 22:32:17 10° SSW 22:36:53 35° W 22:41:32 10° NNW
Cosmos 1346 Rocket 2.8 22:34:25 14° SSW 22:37:42 81° W 22:41:40 10° N
COSMOS 2455 3.9 22:34:26 10° SW 22:40:14 49° NW 22:46:05 10° NNE
Lacrosse 5 4.4 22:36:43 10° NW 22:40:18 19° N 22:43:51 10° NE
Cosmos 407 Rocket 3.4 22:35:48 10° SSW 22:41:04 88° ESE 22:46:20 10° NNE
DELTA 2 DEB (DPAF) 4.1 22:38:41 25° SSE 22:41:13 75° ENE 22:45:43 10° N
Cosmos 1825 Rocket 4.3 22:39:07 10° SSW 22:43:29 53° WNW 22:47:49 10° N
SL-27 R/B 2.8 22:46:07 37° ESE 22:46:25 38° ESE 22:49:35 10° NE
Cosmos 1842 3.4 22:44:54 32° SSE 22:46:28 55° E 22:50:19 10° NNE
USA 238 DEB 4.0 22:43:02 10° S 22:49:41 46° ESE 22:56:22 10° NE
USA 238 4.0 22:43:19 11° S 22:49:47 46° ESE 22:56:27 10° NE
Meteor 1-21 4.2 22:47:54 16° S 22:52:40 86° E 22:58:32 10° NNE
Cosmos 1842 Rocket 4.4 22:52:06 10° N 22:56:12 37° ENE 22:57:35 29° ESE
ARGOS 3.6 22:55:38 20° S 22:59:18 59° WSW 23:04:42 10° NNW
Cosmos 1954 Rocket 3.9 22:57:35 18° SSW 23:01:33 78° ESE 23:06:52 10° NNE
Cosmos 2208 Rocket 4.2 23:00:44 10° NNW 23:05:52 59° ENE 23:08:05 32° SE
IGS 5A 3.5 23:05:31 40° SE 23:06:54 70° ENE 23:11:03 10° N
Cosmos 1766 4.0 23:05:07 10° NNW 23:09:00 48° W 23:10:50 27° SSW
Cosmos 1758 3.3 23:05:33 10° N 23:09:41 80° E 23:10:56 44° SSE
Cosmos 2369 Rocket 3.5 23:05:26 10° NW 23:10:22 32° WSW 23:13:56 16° SSW
Cosmos 2084 3.3 23:10:20 10° NW 23:14:29 81° SW 23:15:41 46° SSE
Nadezhda 4 Rocket 4.1 23:11:18 29° SSE 23:14:38 65° E 23:20:54 10° NNE
Lacrosse 4 Rocket 2.9 23:12:42 10° WSW 23:16:28 36° NW 23:20:19 10° NNE
SL-8 R/B 3.8 23:12:56 10° WNW 23:17:48 77° NNE 23:20:17 29° ESE
SL-23 DEB 3.9 23:15:19 10° WSW 23:20:57 88° SSE 23:24:30 10° ENE
SeaSat 1 4.4 23:18:29 13° SSW 23:21:25 20° WSW 23:25:03 10° WNW
Cosmos 1741 Rocket 4.1 23:21:14 37° SSE 23:23:08 59° ESE 23:28:23 10° NNE
Geosat 4.1 23:22:26 10° NNE 23:27:29 79° WNW 23:31:13 18° SW
Spot 2 4.4 23:22:57 10° NNE 23:27:48 87° WNW 23:30:11 32° SSW
Cosmos 2221 3.6 23:29:56 10° NNE 23:33:47 31° ENE 23:34:25 29° E
Cosmos 1340 3.2 23:34:32 42° E 23:34:32 42° E 23:37:58 10° NNE
Cosmos 1470 2.9 23:32:25 10° N 23:36:16 55° E 23:36:33 54° E
Cosmos-2242 4.0 23:32:27 10° NNW 23:36:36 41° W 23:38:15 29° SW
H-2A R/B 2.5 23:36:00 32° SSW 23:38:00 51° W 23:42:58 10° NNW
Cosmos 1805 3.8 23:34:49 10° NNW 23:38:40 52° W 23:39:29 43° SW
Cosmos 1850 Rocket 3.9 23:37:40 36° SSW 23:39:51 85° ESE 23:45:06 10° NNE
Cosmos 1570 Rocket 4.2 23:34:58 10° NNW 23:40:19 67° WSW 23:42:07 41° S
ISS -0.8 23:41:46 10° WNW 23:44:29 24° N 23:47:13 10° NE
CZ-4C R/B 2.7 23:45:27 36° ESE 23:45:36 36° ESE 23:50:55 10° NE
Cosmos 1544 3.0 23:41:57 10° N 23:45:44 83° W 23:45:56 78° SSW
COSMOS 2406 3.3 23:45:47 23° SW 23:49:26 74° WNW 23:55:12 10° NNE
Atlas Centaur 2 4.0 23:43:17 10° WSW 23:49:12 26° SSW 23:49:12 26° SSW
Cosmos 1607 3.8 23:45:43 24° SSW 23:49:44 84° ESE 23:55:58 10° NE
Cosmos 1140 Rocket 3.9 23:47:55 23° SW 23:51:05 61° WNW 23:56:18 10° NNE
